Regional Weather Roundup
Issued by NWS

Home | Current Version | Previous Version | Text Only | Print | Product List | Glossary Off
Versions: 1 2 3 4 5 6 7 8 9 10 11 12 13 14 15 16 17 18 19 20 21 22 23 24 25 26 27 28 29 30 31 32 33 34 35 36 37 38 39 40 41 42 43 44 45 46 47 48 49 50

000
ASUS43 KLOT 300601
RWRIL

ILLINOIS REGIONAL WEATHER ROUNDUP
NATIONAL WEATHER SERVICE CHICAGO/ROMEOVILLE IL
100 AM CDT SAT MAY 30 2015

NOTE: "FAIR" INDICATES FEW OR NO CLOUDS BELOW 12,000 FEET WITH NO
SIGNIFICANT WEATHER AND/OR OBSTRUCTIONS TO VISIBILITY.

* THESE STATIONS ARE NOT UNDER NWS QUALITY CONTROL. THEY ALSO MAY NOT
  REPORT WEATHER SUCH AS PRECIPITATION OR FOG.

ILZ001-002-007-009-015-016-024-300700-
NORTHWEST ILLINOIS

CITY           SKY/WX    TMP DP  RH WIND       PRES   REMARKS
MOLINE         CLOUDY    67  64  90 SW5       29.95F
6HR MIN TEMP:  67; 6HR MAX TEMP:  76; 6HR PCP:  0.02;

STERLING*      CLOUDY    70  64  83 W5        29.95F
$$

ILZ003-004-008-010-011-017-018-300700-
NORTH CENTRAL ILLINOIS

CITY           SKY/WX    TMP DP  RH WIND       PRES   REMARKS
ROCKFORD       LGT RAIN  69  65  86 SW6       29.96R
6HR MIN TEMP:  68; 6HR MAX TEMP:  71; 6HR PCP:  0.09;

FREEPORT*      CLOUDY    67  64  90 SW9       29.96S
$$

ILZ005-006-012>014-019>023-300700-
NORTHEAST ILLINOIS

CITY           SKY/WX    TMP DP  RH WIND       PRES   REMARKS
CHICAGO-OHARE  MOCLDY    71  65  81 SW8       29.93F
6HR MIN TEMP:  71; 6HR MAX TEMP:  80;

CHICAGO-MIDWAY MOCLDY    73  65  75 SW9       29.94F
6HR MIN TEMP:  73; 6HR MAX TEMP:  83;

AURORA         MOCLDY    70  64  81 SW7       29.95S
6HR MIN TEMP:  70; 6HR MAX TEMP:  80;

WAUKEGAN       MOCLDY    69  63  81 SW8       29.92S
6HR MIN TEMP:  68; 6HR MAX TEMP:  78;

DUPAGE AIRPORT MOCLDY    70  65  84 SW8       29.94F
6HR MIN TEMP:  70; 6HR MAX TEMP:  79;

WHEELING       MOCLDY    71  66  84 SW6       29.94S
6HR MIN TEMP:  69; 6HR MAX TEMP:  81; 6HR PCP:  0.11;

NORTHERLY ISL    N/A     73  62  68 SW5         N/A
$$

LMZ740>746-300700-
SOUTHERN LAKE MICHIGAN

STATION/POSITION SKY/WX   TEMP    WIND        PRES    VSBY  WAVE
                          AIR SEA DIR/SP/G                  HT/PER
                          (F)     (DEG/KT/KT) (MB)    (MI)  (FT/S)
SOUTHERN BUOY              48 38  200/ 10/ 10 1013.5          0
HARRISON CRIB              73     220/ 19/ 24   N/A
BURNHAM HARBOR             73     210/  3/ 10   N/A
CALUMET HARBOR             71     210/  6/  9   N/A
BURNS HARBOR               70     200/ 10/ 13 1014.9R
MICHIGAN CITY              71     170/ 10/ 12   N/A
MICHIGAN CITY 6N           64 56  210/  8/ 10   N/A           1
ST. JOSEPH                 64 58  230/ 10/ 12   N/A           1/ 3
$$

ILZ025>027-034>036-040-047-049-050-058-095>099-300700-
WEST-CENTRAL ILLINOIS

CITY           SKY/WX    TMP DP  RH WIND       PRES   REMARKS
QUINCY         LGT RAIN  67  65  93 CALM      29.99F FOG
MACOMB*        LGT RAIN  68  66  93 SW7       30.01S
$$

ILZ028>032-037-038-041>044-048-051>054-059>061-300700-
CENTRAL ILLINOIS

CITY           SKY/WX    TMP DP  RH WIND       PRES   REMARKS
DECATUR        CLOUDY    70  65  84 SW7       29.99S
PEORIA         CLOUDY    73  67  81 W6        29.97F
6HR MIN TEMP:  72; 6HR MAX TEMP:  81;

SPRINGFIELD    LGT RAIN  72  68  87 SW10      30.01R
6HR MIN TEMP:  72; 6HR MAX TEMP:  74; 6HR PCP:  0.01;

TAYLORVILLE    NOT AVBL
$$

ILZ033-039-045-046-055>057-062-063-300700-
EAST-CENTRAL ILLINOIS

CITY           SKY/WX    TMP DP  RH WIND       PRES   REMARKS
CHAMPAIGN      CLOUDY    69  66  90 SW5       30.00S
MATTOON        CLOUDY    68  65  90 S6        29.99S
$$

ILZ079-100>102-300700-
SOUTHWEST ILLINOIS

CITY           SKY/WX    TMP DP  RH WIND       PRES   REMARKS
BELLEVILLE     CLOUDY    68  68 100 SE5       29.97F
CAHOKIA*       CLOUDY    70  65  84 SE5       29.97F
SPARTA*        MOCLDY    67  66  97 SE7       30.00S
$$

ILZ064>066-069>071-074>076-080>082-084>086-088>090-092>094-300700-
SOUTH-CENTRAL ILLINOIS

CITY           SKY/WX    TMP DP  RH WIND       PRES   REMARKS
CARBONDALE     MOCLDY    69  67  93 CALM      30.00F
6HR MIN TEMP:  69; 6HR MAX TEMP:  81; 6HR PCP:  0.07;

MT. VERNON     CLOUDY    68  63  83 NE5       30.02F
SALEM*         RAIN      69  66  90 SE6       30.02F
$$

ILZ067-068-072-073-078-083-087-091-300700-
SOUTHEAST ILLINOIS

CITY           SKY/WX    TMP DP  RH WIND       PRES   REMARKS
LAWRENCEVILLE  CLEAR     69  65  86 S6        30.02S
ROBINSON*      PTCLDY    68  65  89 CALM      30.02F
$$

ABBREVIATIONS USED IN REMARKS
   TC - TEMPERATURE IN CELSIUS
  WCI - WIND CHILL INDEX
   HX - HEAT INDEX
  VSB - VISIBILITY
$$




USA.gov is the U.S. government's official web portal to all federal, state and local government web resources and services.